Weather History for KP59 - November, 2012

Change the Weather History Date:

Sunday, November 18, 2012

  Actual Average Record
Temperature  
Mean Temperature 47 °F -  
Max Temperature 51 °F 36 °F 64 °F (2001)
Min Temperature 43 °F 28 °F 15 °F (2005)
Degree Days  
Heating Degree Days 18    
Moisture  
Dew Point 35 °F    
Average Humidity 66    
Maximum Humidity 80    
Minimum Humidity 50    
Precipitation  
Precipitation 0.01 in - - ()
Sea Level Pressure  
Sea Level Pressure 30.26 in    
Wind  
Wind Speed 11 mph (SW)    
Max Wind Speed 18 mph    
Max Gust Speed 29 mph    
Averages and records for this station are not official NWS values.
T = Trace of Precipitation, MM = Missing Value Source: NWS Daily Summary

Daily Weather History Graph

Daily Weather History Graph

Search for Another Location

Airport or City:

Trip Planner

Search our weather history database for the weather conditions in past years. The results will help you decide how hot, cold, wet, or windy it might be!

Date:

Astronomy

Nov. 18, 2012 Rise Set
Actual Time 8:01 AM EST 5:11 PM EST
Civil Twilight 7:27 AM EST 5:45 PM EST
Nautical Twilight 6:49 AM EST 6:23 PM EST
Astronomical Twilight 6:13 AM EST 6:59 PM EST
Moon 12:23 PM EST (11/18) 10:37 PM EST (11/18)
Length of Visible Light 10h 18m
Length of Day
9h 10m
Waxing Crescent, 30% of the Moon is Illuminated
Nov 18
Waxing Crescent
Nov 20
First Quarter
Nov 28
Full
Dec 6
Last Quarter
Dec 13
New

Hourly Weather History & Observations

Time (EST) Temp. Windchill Dew Point Humidity Pressure Visibility Wind Dir Wind Speed Gust Speed Precip Events Conditions
12:51 AM 43.0 °F 37.7 °F 37.0 °F 80% 30.32 in - WSW 9.2 mph 17.3 mph N/A   Unknown
1:51 AM 43.0 °F 37.7 °F 37.0 °F 80% 30.31 in - WSW 9.2 mph 18.4 mph N/A   Unknown
2:51 AM 43.0 °F 37.2 °F 36.0 °F 76% 30.33 in - WSW 10.4 mph 17.3 mph N/A   Unknown
3:51 AM 43.0 °F 36.4 °F 34.0 °F 71% 30.32 in - WSW 12.7 mph 21.9 mph N/A   Unknown
4:51 AM 45.0 °F 39.3 °F 33.1 °F 63% 30.31 in - WSW 11.5 mph 20.7 mph N/A   Unknown
5:51 AM 44.1 °F 38.6 °F 33.1 °F 65% 30.32 in - WSW 10.4 mph 20.7 mph N/A   Unknown
6:51 AM 44.1 °F 38.1 °F 34.0 °F 68% 30.31 in - WSW 11.5 mph 18.4 mph N/A   Unknown
7:51 AM 43.0 °F 37.7 °F 35.1 °F 74% 30.30 in - SW 9.2 mph 16.1 mph N/A   Unknown
8:51 AM 43.0 °F 37.2 °F 36.0 °F 76% 30.30 in - WSW 10.4 mph - N/A   Unknown
9:51 AM 46.9 °F - 34.0 °F 61% 30.30 in - SW 10.4 mph 18.4 mph N/A   Unknown
10:51 AM 48.9 °F - 30.9 °F 50% 30.29 in - SW 13.8 mph 20.7 mph N/A   Unknown
11:51 AM 48.9 °F - 32.0 °F 52% 30.29 in - SW 10.4 mph 17.3 mph N/A   Unknown
12:51 PM 50.0 °F - 33.1 °F 52% 30.27 in - SW 12.7 mph 19.6 mph N/A   Unknown
1:51 PM 51.1 °F - 33.1 °F 50% 30.25 in - SSW 9.2 mph 21.9 mph N/A   Unknown
2:51 PM 50.0 °F - 33.1 °F 52% 30.23 in - SSW 9.2 mph 17.3 mph N/A   Unknown
3:51 PM 48.0 °F - 36.0 °F 63% 30.22 in - SSW 8.1 mph 24.2 mph N/A   Unknown
4:51 PM 48.9 °F - 34.0 °F 56% 30.19 in - SSW 18.4 mph 27.6 mph N/A   Unknown
5:51 PM 48.9 °F - 36.0 °F 61% 30.20 in - SW 13.8 mph 27.6 mph N/A   Unknown
6:51 PM 48.9 °F - 39.0 °F 69% 30.19 in - SSW 13.8 mph 27.6 mph N/A   Unknown
7:51 PM 48.0 °F - 39.9 °F 74% 30.19 in - SSW 13.8 mph 25.3 mph N/A   Unknown
8:51 PM 48.0 °F - 39.0 °F 71% 30.17 in - SW 18.4 mph 28.8 mph N/A   Unknown
9:51 PM 46.9 °F - 39.0 °F 74% 30.19 in - SW 10.4 mph 21.9 mph 0.01 in   Unknown
10:51 PM 46.9 °F - 39.0 °F 74% 30.18 in - SW 10.4 mph 19.6 mph N/A   Unknown
11:51 PM 46.0 °F 41.4 °F 37.9 °F 73% 30.18 in - SW 9.2 mph 18.4 mph N/A   Unknown